Regional Weather Roundup
Issued by NWS

Home | Current Version | Previous Version | Graphics & Text | Print | Product List | Glossary On
Versions: 1 2 3 4 5 6 7 8 9 10 11 12 13 14 15 16 17 18 19 20 21 22 23 24 25 26 27 28 29 30 31 32 33 34 35 36 37 38 39 40 41 42 43 44 45 46 47 48 49 50
000
ASUS45 KABQ 051710
RWRNM
NEW MEXICO REGIONAL WEATHER ROUNDUP
NATIONAL WEATHER SERVICE ALBUQUERQUE NM
1100 AM MDT SUN JUL 05 2015

NOTE: "FAIR" MEANS FEW OR NO CLOUDS BELOW 12,000 FEET AGL WITH NO
       SIGNIFICANT WEATHER OR OBSTRUCTIONS TO VISION.

      THIS PRODUCT IS RELEASED AS TWO VERSIONS.  ONE VERSION NEAR
      THE TOP OF THE HOUR CONTAINING PRELIMINARY DATA FROM ALBUQUERQUE
      AND OTHER STATIONS.  A FINAL VERSION WITH ADDITIONAL DATA IS
      ISSUED ABOUT 10 MINUTES AFTER THE HOUR.

NMZ501-503-504-510>518-051800-
NORTHWEST PLATEAU/NORTHCENTRAL MOUNTAINS

CITY           SKY/WX    TMP DP  RH WIND       PRES   REMARKS
FARMINGTON     SUNNY     73  58  59 VRB3      30.16F
LOS ALAMOS     PTSUNNY   71  53  52 SW3       30.26F
SANTA FE       PTSUNNY   76  53  44 SW8       30.19F
TAOS           SUNNY     75  46  35 SW6         N/A
ANGEL FIRE     FAIR      68  49  51 W10G18    30.32S

$$
NMZ402-403-502-505>509-051800-
WESTCENTRAL MOUNTAINS/SOUTHWEST MOUNTAINS

CITY           SKY/WX    TMP DP  RH WIND       PRES   REMARKS
GALLUP         PTSUNNY   76  53  44 W9        30.24F
GRANTS         MOSUNNY   75  55  48 N3        30.24F
SILVER CITY      N/A     70  63  78 NW10      30.22S

$$
NMZ407-409-411-412-051800-
SOUTHERN DESERTS

CITY           SKY/WX    TMP DP  RH WIND       PRES   REMARKS
LORDSBURG      CLOUDY    77  61  57 W10G17    30.14S
DEMING         CLOUDY    76  64  66 W8        30.13S
LAS CRUCES     PTSUNNY   79  62  56 W8        30.13F
HOLLOMAN AFB   SUNNY     85  58  39 S8        30.06F
ALAMOGORDO     SUNNY     84  57  39 S7        30.09F
T OR C         PTSUNNY   80  59  48 VRB3      30.12F

$$
NMZ519>523-051800-
CENTRAL VALLEYS/CENTRAL HIGHLANDS

CITY           SKY/WX    TMP DP  RH WIND       PRES   REMARKS
ALBUQUERQUE    PTSUNNY   79  56  45 VRB5      30.15F
DOUBLE EAGLE   PTSUNNY   79  55  44 SW3       30.19F
MORIARTY ARPT    N/A     79  49  34 W8        30.20F
CLINES CORNERS MOSUNNY   76  53  44 W12       30.23F
BELEN          FAIR      82  51  33 W6        30.14S
SOCORRO        FAIR      81  55  40 S6        30.12F

$$
NMZ524>526-539-540-051800-
SOUTHCENTRAL MOUNTAINS

CITY           SKY/WX    TMP DP  RH WIND       PRES   REMARKS
RUIDOSO        PTSUNNY   73  55  53 CALM      30.26F

$$
NMZ527>531-051800-
NORTHEAST HIGHLANDS/NORTHEAST PLAINS

CITY           SKY/WX    TMP DP  RH WIND       PRES   REMARKS
LAS VEGAS      SUNNY     78  53  41 VRB5      30.19F
RATON          MOSUNNY   76  57  51 S7        30.12F
CLAYTON        MOSUNNY   88  58  36 S23G31    30.06S

$$
NMZ532>537-051800-
EASTCENTRAL PLAINS

CITY           SKY/WX    TMP DP  RH WIND       PRES   REMARKS
TUCUMCARI      SUNNY     89  60  37 SW13G24   30.01F
CANNON AFB     MOSUNNY   84  62  47 S10       30.07F
CLOVIS AIRPORT SUNNY     82  61  47 S16G24      N/A

$$
NMZ028-029-538-051800-
SOUTHEAST PLAINS

CITY           SKY/WX    TMP DP  RH WIND       PRES   REMARKS
ROSWELL        SUNNY     86  63  45 S9        30.03F
ARTESIA        SUNNY     84  64  51 S10G20    30.04F
CARLSBAD       SUNNY     87  65  47 SE8       30.02F
HOBBS          MOSUNNY   82  63  51 E8        30.07F


$$



USA.gov is the U.S. government's official web portal to all federal, state and local government web resources and services.